Wetbulb
53.33 53.59 54.10 55.34 55.47 56.70 56.52 56.58 57.33 58.04 58.44 57.79 57.33 56.50 55.67 54.69 53.03 47.06 41.64 46.09 45.28 40.79 40.18 42.63 43.02 40.37 39.81 39.93 37.64 37.50 37.91 37.02 34.75 34.07 33.53 32.63 31.71 33.85 32.39 33.25 31.10 31.46 28.94 28.08 29.08 27.66 28.82 39.63 37.83 37.92 42.14 40.58 41.18 40.10
53.04 53.47 53.98 53.36 53.49 54.63 56.32 56.24 56.46 56.61 56.78 57.25 57.41 56.72 56.05 55.43 53.78 50.91 43.51 45.29 47.33 44.02 40.15 44.92 45.49 46.07 43.94 43.89 41.51 36.87 39.70 36.55 39.28 36.23 34.25 34.89 33.22 32.27 33.48 31.05 32.63 32.24 36.90 33.71 34.23 34.49 40.60 39.47 42.67 43.22 41.63 41.57 41.81 41.31
52.47 52.39 53.04 53.30 53.07 53.55 54.21 56.03 56.25 56.16 55.50 55.11 55.27 55.70 56.15 55.98 54.44 51.47 45.79 44.30 45.09 40.85 37.53 37.49 38.77 43.84 47.66 47.69 46.95 38.89 37.09 40.55 39.53 41.65 37.92 35.93 33.75 34.44 31.43 31.87 33.73 33.82 36.31 35.05 35.89 37.42 38.69 40.56 42.81 41.56 42.37 41.39 41.75 41.47
51.86 52.02 51.86 52.47 52.77 52.87 53.41 54.06 55.41 55.89 55.76 55.16 55.05 54.95 55.08 55.68 54.87 52.30 44.63 45.78 43.87 40.66 34.82 37.81 43.86 41.16 44.52 47.75 47.65 45.04 42.08 42.55 42.09 42.54 37.24 33.56 33.27 37.54 33.87 36.03 35.11 37.46 36.61 35.44 34.33 36.50 38.70 40.63 40.96 43.16 43.78 42.81 40.92 41.68
51.14 51.52 51.94 52.03 52.59 53.06 53.22 53.42 54.13 55.12 55.30 55.34 55.09 54.85 54.82 55.38 54.87 52.49 46.61 46.22 46.72 45.40 36.74 37.98 42.29 43.68 44.11 46.76 46.90 46.72 44.34 42.71 41.50 39.44 37.75 34.71 35.92 37.43 34.21 34.25 34.96 37.05 36.35 36.94 39.34 41.30 42.64 44.23 44.73 44.31 42.79 42.72 43.49 42.72
50.93 51.27 51.77 52.37 52.79 52.88 53.03 53.19 53.98 53.85 53.95 54.33 54.97 54.78 54.80 54.97 54.68 47.39 39.92 45.34 47.59 47.60 41.00 36.48 41.75 40.72 41.55 42.50 43.56 44.23 44.57 43.69 43.41 41.10 39.86 42.04 41.43 40.82 35.41 36.34 44.46 45.71 43.35 45.16 43.11 45.73 41.99 44.16 44.15 44.04 43.67 43.70 44.14 43.30
50.36 50.96 51.37 51.52 52.25 52.67 52.85 52.57 52.79 53.25 52.78 52.83 53.07 54.24 53.93 54.00 49.97 44.12 40.66 44.65 48.26 48.03 38.48 33.08 34.81 37.53 37.21 40.09 40.92 41.26 42.79 41.86 42.41 40.62 40.00 41.87 38.38 42.01 35.73 36.80 43.52 45.71 47.17 47.42 46.19 41.31 41.09 41.14 42.97 43.35 44.65 45.58 46.21 45.00
50.16 50.25 50.66 51.02 51.56 52.23 52.61 52.43 52.57 52.67 52.87 52.86 52.95 52.86 53.02 53.25 50.02 45.22 45.65 47.92 48.27 41.42 39.59 31.97 32.32 34.00 37.21 34.72 36.54 40.88 38.62 40.36 40.07 40.11 40.30 40.28 41.47 39.46 33.69 39.88 43.09 44.76 45.58 45.61 46.02 42.93 45.05 45.79 43.79 44.21 44.87 44.17 42.70 43.14
50.12 49.92 49.97 50.46 51.06 51.84 52.32 52.78 52.18 52.35 52.13 52.37 52.37 49.31 46.29 41.59 39.98 41.59 48.26 47.26 43.05 39.50 32.12 31.77 32.27 30.90 35.94 34.20 35.87 37.49 38.48 34.74 40.10 36.89 37.99 39.71 37.07 34.32 38.59 40.79 42.22 43.77 43.70 44.68 46.14 45.74 44.83 44.32 44.80 45.62 45.49 44.57 42.74 43.61
49.13 49.38 49.59 50.33 50.99 51.53 51.86 52.38 52.66 51.95 51.44 50.57 45.55 39.39 35.35 36.19 46.83 45.60 38.39 33.84 33.27 32.49 32.58 32.13 35.07 30.22 33.75 33.61 34.07 35.31 35.36 34.89 30.93 34.52 40.14 35.83 35.66 40.41 42.36 42.91 43.26 44.21 44.77 44.33 42.15 41.91 43.43 43.46 44.26 44.95 44.98 44.72 43.97 43.85
48.80 49.20 49.94 50.38 50.57 51.12 51.34 51.70 51.73 50.33 47.77 41.57 32.90 32.18 35.87 42.51 38.50 33.95 29.87 31.27 30.64 27.72 30.93 33.43 32.95 30.40 33.83 32.67 33.40 35.28 32.55 32.82 29.38 32.38 34.06 31.89 32.01 37.91 43.00 43.45 44.56 45.06 44.99 44.47 44.76 45.22 45.65 45.40 44.72 44.37 43.93 43.12 43.57 43.50
48.40 48.64 49.43 49.94 50.25 50.63 50.54 50.33 49.99 43.32 40.28 39.15 37.13 38.72 37.43 33.03 31.16 28.51 27.69 28.38 27.80 24.38 29.61 30.54 32.29 32.49 33.04 36.14 34.35 32.65 31.53 31.11 27.80 34.97 31.67 29.36 34.22 39.95 39.40 40.65 42.38 43.82 43.84 43.71 44.42 43.99 44.44 44.35 44.64 44.27 44.22 44.18 42.53 41.93
48.20 48.86 49.23 49.75 50.12 50.38 49.68 49.52 48.06 43.85 41.17 37.58 34.64 31.58 31.06 29.47 24.28 23.56 19.52 21.44 21.79 28.32 28.26 31.76 30.25 32.61 33.20 34.58 33.61 31.48 29.10 28.41 34.09 29.55 29.07 29.80 33.69 34.71 36.10 36.76 37.97 39.23 39.78 40.02 40.33 41.09 41.62 41.98 42.93 42.80 42.64 43.51 42.88 41.52
48.40 48.87 49.26 49.71 49.63 49.28 49.04 48.13 45.30 43.75 39.49 32.85 29.93 23.91 26.60 22.02 19.53 22.06 23.51 24.00 27.58 28.18 30.71 33.45 30.73 32.72 33.58 32.10 32.16 28.55 30.75 31.10 26.91 25.46 25.39 32.11 32.18 33.84 34.86 34.48 33.21 34.43 34.89 34.79 35.06 35.68 36.00 36.76 38.21 39.70 40.38 41.82 40.19 38.19
48.27 48.58 48.94 48.62 48.67 48.65 48.59 46.25 46.35 40.75 36.30 31.25 30.21 24.59 23.91 24.02 23.21 24.91 26.29 26.74 30.19 33.05 33.68 32.80 32.65 33.07 31.31 31.22 31.30 30.19 27.01 25.02 26.19 24.82 28.43 29.93 31.52 31.66 32.20 32.20 32.06 31.91 32.28 32.82 33.56 33.57 33.89 34.00 34.15 35.22 36.80 37.13 38.01 37.49
48.03 47.74 44.86 48.02 47.94 47.08 47.40 46.53 40.59 36.12 32.72 31.19 28.22 21.00 23.98 23.34 19.15 22.24 25.23 27.42 32.44 34.19 34.51 33.62 30.46 28.83 28.88 29.90 25.94 24.95 25.11 23.63 25.99 28.66 30.33 30.66 30.86 31.07 30.87 31.39 31.89 32.23 32.25 32.42 32.63 32.96 33.33 33.33 33.62 34.11 34.25 34.00 34.17 34.61
46.63 40.79 46.68 47.80 47.16 46.31 46.42 36.92 33.94 32.16 32.96 30.27 26.60 23.01 24.00 24.62 24.63 24.93 27.45 28.82 33.11 33.77 25.22 24.19 26.61 23.81 28.03 24.33 23.44 25.95 24.12 26.00 28.95 29.59 30.91 31.20 31.59 31.51 31.47 31.36 31.85 32.49 32.54 32.52 32.98 33.25 33.48 34.18 34.02 33.40 33.11 34.00 34.31 34.86
42.16 44.58 46.84 47.31 46.14 42.11 33.83 33.50 33.20 31.66 27.97 22.50 24.20 27.06 23.64 25.76 25.38 26.15 28.33 32.33 32.88 31.21 27.66 25.68 26.91 26.48 23.73 18.75 20.58 24.85 27.91 30.35 30.71 31.14 31.08 31.30 31.26 31.77 32.82 31.99 32.85 32.80 32.47 32.74 33.23 33.46 33.70 33.87 33.49 33.43 33.68 33.78 34.01 34.36
43.25 44.19 46.45 45.58 41.67 35.29 31.99 30.71 31.15 27.12 18.42 23.38 22.44 25.51 28.98 27.55 27.99 28.32 30.01 33.81 32.14 32.71 32.69 31.33 27.92 24.20 24.44 25.15 26.99 28.00 28.51 29.29 29.40 30.26 30.99 31.52 32.15 32.39 32.78 32.69 32.86 32.30 32.38 32.51 32.91 33.87 34.62 34.49 34.50 34.84 35.32 35.93 35.81 35.52
46.17 45.74 45.98 44.69 40.25 32.61 28.16 26.32 26.98 24.72 23.57 24.75 25.24 27.42 24.91 24.30 26.77 29.24 31.31 32.49 33.53 32.80 30.96 29.32 28.53 26.83 27.86 29.10 30.47 30.44 30.28 30.65 30.22 29.49 30.11 31.45 31.80 31.59 31.90 32.41 32.41 32.08 31.97 32.48 32.62 35.64 32.91 32.73 33.78 35.04 35.81 35.84 35.31 34.40
42.74 44.34 41.87 35.65 31.57 29.31 24.13 17.72 19.96 23.30 22.26 21.36 28.01 29.15 27.66 28.66 28.52 27.84 29.90 33.85 31.88 31.26 28.55 27.52 26.05 30.18 31.85 32.21 31.64 31.65 31.45 31.23 30.78 31.35 31.13 30.56 32.81 31.49 32.18 32.81 31.78 31.08 30.77 31.31 31.46 32.23 35.05 33.49 34.39 34.57 35.95 35.73 35.18 34.90
32.33 38.44 32.29 33.18 27.65 24.15 20.29 15.60 17.93 20.56 20.52 23.10 26.80 24.35 22.68 24.23 27.31 29.16 32.32 31.10 30.75 28.96 28.63 28.11 29.59 32.07 31.67 30.45 31.90 30.93 32.48 32.17 31.86 32.06 35.66 34.48 31.77 31.59 31.71 32.04 30.85 31.30 31.45 31.70 32.34 33.02 34.25 35.06 33.89 33.23 34.32 34.56 35.19 33.81
37.46 34.54 30.74 29.49 24.57 20.83 17.00 16.83 15.35 17.31 16.57 22.88 24.09 21.04 24.06 26.16 28.62 32.78 27.06 27.17 27.54 29.33 31.01 30.93 31.38 31.75 31.59 31.67 31.16 30.70 31.21 31.36 30.96 31.10 32.12 32.21 32.81 33.20 32.40 33.02 32.00 31.73 32.34 32.75 32.64 33.78 34.22 35.46 35.51 33.95 33.85 33.99 32.89 32.53
34.99 27.75 24.81 22.66 20.34 14.36 12.88 15.71 14.75 17.99 20.79 18.61 18.20 19.90 20.86 24.10 27.82 28.13 25.38 25.08 27.31 28.45 29.26 30.23 30.47 29.32 28.23 27.38 27.69 30.05 30.72 30.74 31.31 32.07 31.62 30.89 31.21 32.17 32.51 33.47 34.09 33.09 34.19 34.47 32.78 33.12 33.76 34.25 35.77 34.61 33.67 33.08 32.44 32.17
27.47 22.13 23.64 16.78 10.53 9.40 8.85 14.43 15.51 18.28 17.99 19.40 16.90 15.10 14.25 21.49 23.41 22.46 20.15 22.68 24.50 25.47 25.88 26.88 27.06 28.00 27.83 29.07 29.00 29.20 30.94 30.84 30.23 30.30 32.22 31.45 31.90 31.44 31.59 30.95 32.58 33.82 33.96 32.54 32.58 32.91 33.14 34.02 35.02 34.14 33.34 33.11 32.41 31.97
20.06 17.49 14.06 11.50 8.94 11.26 14.06 12.42 14.19 17.61 17.53 16.50 15.39 16.48 20.47 22.30 16.18 14.59 18.07 21.68 22.20 23.45 24.25 24.36 24.13 24.43 24.62 26.80 27.21 28.32 29.57 30.68 30.47 29.75 31.95 32.39 31.63 31.59 31.59 31.24 31.31 32.52 33.51 34.84 34.18 33.19 33.33 33.97 34.37 33.94 33.20 33.91 35.60 32.52
16.90 13.63 14.96 11.49 17.03 17.90 18.60 19.40 19.01 18.24 15.51 14.98 14.16 17.09 14.55 7.09 12.57 17.78 21.17 23.04 23.75 25.23 26.67 27.33 26.58 25.28 25.63 27.89 29.15 30.01 30.21 29.67 29.61 30.84 32.89 32.99 33.34 34.11 33.68 32.43 31.80 34.38 34.68 34.34 34.46 34.31 33.68 33.63 34.01 33.86 33.68 33.66 34.45 33.82
13.78 13.87 16.00 17.72 18.69 18.74 12.86 9.51 10.39 11.18 13.63 14.80 15.82 10.21 9.59 12.47 15.59 21.91 23.09 25.85 25.72 26.29 26.66 27.46 27.75 26.97 26.39 27.40 27.99 27.94 28.19 29.11 29.19 29.07 29.47 30.01 30.84 32.66 33.58 34.88 35.90 37.54 34.59 34.60 34.49 34.78 34.78 34.71 34.30 34.17 33.95 33.41 33.32 33.77
17.24 18.39 19.54 15.66 15.39 13.84 13.20 14.70 14.58 17.33 18.32 17.65 15.57 13.12 15.09 20.73 24.22 24.10 23.69 23.54 24.20 23.95 23.09 23.77 25.17 26.52 25.73 26.20 27.11 27.66 27.77 27.47 25.75 24.20 24.12 25.69 27.62 28.46 30.88 32.71 34.03 34.56 35.24 34.16 36.69 36.09 34.58 34.90 34.51 34.43 34.61 34.53 34.52 33.32
11.20 11.06 10.99 8.43 8.97 11.84 16.82 20.02 19.99 20.50 19.27 20.43 21.08 21.79 24.33 23.56 23.37 23.79 20.15 20.27 21.57 21.87 22.94 24.11 25.13 23.32 22.82 23.70 24.46 25.86 28.93 31.14 31.08 29.05 27.06 26.82 28.38 30.14 30.40 31.03 31.75 32.32 33.46 33.00 32.27 33.55 37.50 36.17 35.83 34.28 32.43 31.25 30.54 29.54
14.81 16.44 14.05 14.77 13.53 17.18 20.04 20.86 21.43 21.72 20.28 19.88 22.90 23.29 24.05 22.20 22.91 22.79 21.83 21.90 22.27 22.54 22.73 22.36 23.11 23.81 23.11 23.29 23.45 22.79 23.40 27.52 27.97 28.49 29.96 31.23 32.59 30.65 30.57 30.06 30.10 31.04 30.79 31.16 30.79 32.10 33.37 33.70 32.72 32.10 30.91 30.55 30.25 30.50
13.99 15.70 14.67 9.93 10.43 14.37 19.14 19.26 20.97 20.67 21.03 19.93 17.29 19.33 22.88 22.18 17.75 20.84 23.84 22.13 21.43 20.50 22.87 23.11 21.82 21.97 24.20 24.98 25.97 26.42 27.85 25.98 26.16 27.81 28.69 30.44 30.66 33.02 32.06 30.34 29.37 29.42 30.50 30.60 30.17 30.06 30.53 32.04 31.92 31.63 31.32 30.48 30.26 29.45
10.24 15.21 15.97 13.43 11.01 10.54 15.66 14.40 12.11 9.65 11.98 12.45 15.77 20.99 22.37 21.67 17.45 22.31 25.02 23.64 22.58 21.38 21.10 21.78 22.82 23.64 24.07 24.49 24.62 25.24 26.76 26.35 27.28 29.42 30.70 31.73 32.99 33.61 33.55 32.77 32.82 31.48 29.71 29.08 29.13 29.41 29.14 29.25 30.30 30.95 30.87 30.82 30.53 29.86
MSLP
1003.43 1003.17 1004.12 1004.82 1004.81 1005.26 1006.07 1006.79 1007.14 1007.38 1007.58 1008.37 1009.16 1009.92 1010.86 1011.82 1012.77 1014.07 1014.97 1015.50 1016.10 1016.58 1016.04 1015.51 1015.21 1015.29 1015.86 1016.11 1016.88 1018.02 1018.89 1019.45 1020.10 1020.68 1021.02 1021.23 1021.14 1020.35 1020.43 1020.46 1020.86 1021.36 1022.37 1022.52 1022.26 1021.26 1017.66 1014.82 1015.98 1015.34 1012.79 1012.67 1012.66 1013.02
1002.72 1003.02 1003.99 1004.59 1004.78 1004.71 1005.09 1005.86 1006.65 1007.46 1007.61 1007.87 1008.18 1008.94 1009.61 1010.58 1011.69 1012.77 1014.20 1014.46 1015.39 1016.36 1016.02 1015.42 1014.98 1014.63 1014.13 1014.16 1015.00 1016.51 1016.67 1017.09 1017.48 1018.97 1019.84 1019.72 1020.04 1019.90 1019.53 1019.83 1019.54 1019.40 1017.61 1018.06 1018.09 1016.12 1014.29 1013.82 1012.79 1012.43 1012.30 1012.34 1012.19 1012.42
1002.43 1002.80 1003.62 1003.85 1003.85 1004.59 1005.13 1005.19 1006.34 1006.93 1007.37 1007.89 1008.41 1008.62 1009.24 1010.07 1010.66 1011.60 1013.01 1013.88 1015.14 1016.14 1015.95 1015.64 1014.56 1014.24 1014.29 1014.32 1014.31 1015.03 1016.12 1015.81 1016.45 1016.35 1017.75 1018.67 1019.14 1018.70 1018.75 1018.06 1017.61 1016.88 1016.12 1016.29 1016.33 1013.85 1013.59 1012.98 1012.57 1012.43 1012.05 1011.90 1011.72 1011.97
1001.93 1002.36 1002.98 1003.22 1003.44 1004.50 1004.54 1004.73 1005.78 1006.54 1007.17 1007.18 1007.87 1008.58 1009.18 1009.70 1010.32 1011.33 1012.35 1013.15 1014.16 1015.69 1015.87 1014.38 1014.10 1013.84 1013.57 1013.98 1014.32 1014.54 1014.90 1015.62 1016.07 1016.55 1017.19 1017.67 1017.84 1016.75 1016.65 1015.97 1015.64 1014.49 1014.74 1014.44 1013.45 1012.94 1012.71 1012.26 1011.78 1011.47 1011.11 1011.26 1011.35 1011.14
1001.19 1001.58 1002.00 1002.71 1003.14 1003.87 1004.04 1004.66 1005.40 1006.01 1006.38 1006.79 1007.22 1007.94 1008.67 1009.26 1009.77 1011.04 1012.09 1012.62 1012.77 1013.44 1014.27 1014.64 1014.41 1013.80 1013.70 1013.71 1014.13 1014.34 1014.86 1015.47 1016.16 1016.87 1017.10 1017.18 1016.68 1016.66 1016.42 1015.85 1012.65 1012.56 1012.07 1012.33 1009.60 1010.61 1010.71 1010.34 1010.15 1009.97 1010.32 1010.38 1009.98 1010.17
1001.12 1001.48 1001.62 1002.40 1002.95 1002.86 1003.23 1004.22 1005.05 1005.60 1005.88 1006.27 1006.55 1007.05 1008.10 1008.67 1009.40 1011.06 1012.47 1012.92 1012.63 1012.70 1013.79 1014.61 1014.41 1014.01 1013.72 1013.84 1014.10 1014.45 1014.80 1015.38 1015.79 1016.20 1016.40 1015.81 1015.43 1015.59 1015.46 1013.75 1007.06 1010.41 1010.26 1009.89 1008.30 1009.48 1009.74 1009.29 1009.12 1009.28 1009.19 1008.92 1008.58 1008.78
1000.69 1001.10 1001.51 1001.97 1002.35 1002.71 1003.06 1003.76 1004.41 1005.02 1005.69 1006.15 1006.25 1006.49 1007.47 1008.13 1008.57 1009.63 1010.36 1010.35 1011.30 1012.72 1013.74 1014.70 1014.49 1014.25 1014.23 1014.12 1014.43 1014.58 1014.67 1015.03 1015.53 1015.97 1015.72 1015.57 1015.40 1015.32 1014.59 1013.42 1003.61 1009.92 1009.15 1008.72 1008.54 1009.19 1009.09 1008.75 1008.09 1008.09 1007.78 1007.43 1007.44 1007.45
1000.24 1000.90 1001.34 1001.74 1002.09 1002.30 1002.71 1003.33 1003.91 1004.63 1004.77 1005.66 1005.80 1006.65 1007.19 1007.31 1008.00 1009.06 1009.24 1009.76 1011.15 1012.84 1013.76 1014.41 1014.27 1014.58 1013.79 1014.33 1014.73 1014.53 1014.86 1015.18 1015.21 1015.06 1014.95 1014.62 1014.89 1014.57 1013.10 1008.48 1008.00 1008.43 1008.66 1007.93 1008.00 1008.13 1007.31 1007.34 1007.14 1006.90 1006.84 1006.91 1006.85 1006.83
999.49 1000.05 1000.63 1001.23 1001.84 1002.18 1002.50 1003.17 1003.48 1003.94 1004.30 1005.29 1006.10 1006.78 1006.86 1007.27 1007.66 1008.32 1008.96 1010.18 1011.20 1012.28 1013.21 1013.58 1013.30 1013.61 1013.58 1013.70 1014.00 1014.55 1014.56 1014.99 1014.76 1014.14 1013.92 1014.06 1013.51 1012.00 1008.56 1008.11 1007.09 1006.57 1007.17 1005.98 1007.10 1006.97 1006.95 1006.50 1005.71 1005.74 1005.94 1005.95 1005.93 1005.58
999.01 999.53 1000.03 1000.45 1000.97 1001.63 1002.22 1002.75 1003.55 1003.71 1004.43 1005.45 1006.55 1007.38 1008.03 1008.52 1008.50 1008.38 1010.59 1011.49 1011.91 1012.31 1012.42 1012.27 1011.95 1012.76 1013.14 1013.90 1013.52 1013.87 1014.10 1013.85 1013.85 1013.46 1013.25 1012.71 1011.54 1009.01 1007.42 1006.09 1004.82 1005.31 1005.96 1006.62 1006.55 1005.79 1005.73 1004.97 1004.95 1004.45 1004.89 1005.12 1005.22 1005.10
998.58 999.12 999.58 999.97 1000.47 1001.02 1001.47 1001.92 1002.67 1003.65 1004.93 1005.90 1007.40 1008.46 1009.33 1009.36 1008.87 1009.95 1010.95 1011.42 1012.07 1012.10 1011.91 1011.52 1011.47 1011.76 1012.58 1012.90 1013.28 1013.14 1013.09 1013.13 1012.81 1012.40 1012.26 1011.47 1010.06 1005.95 1003.55 1004.67 1004.66 1005.30 1005.74 1005.32 1005.14 1004.57 1004.56 1004.19 1004.14 1004.00 1004.04 1004.24 1004.33 1004.50
998.04 998.53 999.05 999.53 1000.02 1000.59 1001.17 1001.87 1002.82 1003.94 1004.95 1005.54 1006.93 1008.55 1009.58 1009.50 1009.79 1010.52 1010.86 1011.42 1011.58 1011.23 1011.43 1011.07 1011.44 1011.35 1011.64 1011.63 1011.99 1012.57 1012.69 1012.70 1011.98 1011.59 1011.34 1009.95 1006.22 1003.99 1004.47 1004.05 1003.91 1004.32 1004.48 1004.22 1004.06 1003.69 1003.73 1003.78 1003.64 1003.54 1003.47 1003.79 1003.75 1003.75
997.65 998.16 998.60 999.10 999.57 1000.13 1000.74 1001.55 1002.59 1003.78 1004.86 1006.24 1007.53 1008.93 1009.29 1009.95 1010.49 1010.55 1010.68 1010.74 1010.60 1009.94 1010.28 1009.97 1010.61 1010.98 1011.36 1011.40 1011.47 1011.66 1011.77 1011.76 1011.40 1011.08 1009.99 1007.71 1004.90 1004.75 1004.35 1003.89 1003.76 1003.79 1003.97 1003.89 1003.89 1004.00 1003.89 1003.51 1003.20 1002.99 1002.76 1002.96 1002.96 1003.04
997.14 997.65 998.12 998.62 999.12 999.73 1000.53 1001.63 1002.83 1003.68 1004.64 1006.32 1007.49 1008.57 1008.86 1009.59 1009.18 1008.65 1008.45 1008.26 1008.24 1008.40 1009.47 1009.50 1010.18 1010.26 1010.36 1010.80 1010.80 1010.71 1010.73 1010.81 1010.62 1010.20 1008.68 1005.48 1004.38 1004.55 1004.71 1004.48 1004.58 1004.39 1004.19 1004.20 1004.28 1004.13 1003.82 1003.33 1002.91 1002.82 1002.69 1002.32 1002.72 1003.11
996.74 997.25 997.72 998.48 998.95 999.70 1000.61 1001.90 1002.20 1003.17 1004.77 1006.11 1006.94 1007.69 1008.20 1007.55 1007.59 1007.63 1007.76 1007.83 1008.29 1008.36 1008.32 1009.89 1009.91 1009.73 1010.16 1010.18 1009.96 1009.96 1010.21 1009.95 1009.46 1008.32 1006.34 1005.21 1004.89 1005.16 1005.14 1004.99 1004.81 1004.69 1004.50 1004.54 1004.50 1004.46 1003.78 1002.94 1002.61 1002.43 1002.12 1002.30 1002.40 1002.64
996.40 997.23 997.94 998.11 998.93 999.82 1000.79 1002.02 1002.85 1003.65 1004.78 1005.62 1006.08 1006.78 1007.27 1007.74 1008.07 1008.06 1007.79 1007.63 1006.86 1008.06 1009.21 1009.20 1009.75 1009.75 1009.44 1009.44 1009.62 1009.14 1009.23 1008.25 1006.44 1005.82 1005.50 1005.40 1005.33 1005.20 1005.00 1004.74 1004.57 1004.28 1004.46 1004.53 1004.59 1004.12 1003.48 1003.16 1002.96 1002.41 1002.09 1001.95 1002.37 1002.27
996.67 997.06 997.43 998.00 998.96 999.94 1000.95 1002.16 1003.16 1003.96 1004.38 1005.02 1005.57 1005.82 1006.01 1006.47 1006.63 1007.00 1006.67 1006.97 1007.48 1008.14 1008.75 1009.17 1008.99 1009.03 1009.29 1009.37 1008.95 1007.94 1006.90 1005.82 1005.31 1005.36 1005.49 1005.51 1005.38 1005.24 1004.97 1004.78 1004.70 1004.85 1004.63 1004.25 1004.06 1003.56 1003.43 1003.19 1002.59 1002.50 1002.53 1002.31 1002.09 1002.09
996.38 996.71 997.20 997.88 998.88 1000.36 1001.74 1002.48 1003.09 1003.65 1004.53 1005.18 1005.49 1005.65 1005.78 1005.90 1006.16 1006.42 1006.50 1006.78 1007.18 1007.53 1008.17 1008.29 1007.96 1008.54 1008.27 1007.68 1006.70 1005.87 1005.63 1005.08 1004.86 1005.12 1005.23 1005.09 1005.06 1004.94 1004.81 1004.73 1004.56 1004.44 1004.43 1003.94 1003.33 1003.27 1003.21 1003.03 1002.82 1002.26 1002.25 1002.64 1002.78 1002.68
996.01 996.69 997.33 997.98 998.88 1000.70 1002.23 1003.20 1003.50 1003.94 1004.92 1004.98 1005.21 1005.27 1005.56 1005.55 1005.58 1005.57 1005.75 1006.05 1006.08 1006.17 1007.04 1007.34 1007.36 1006.98 1006.29 1005.98 1005.56 1005.07 1005.13 1005.05 1005.13 1004.99 1004.83 1004.56 1004.43 1004.45 1004.43 1004.28 1004.27 1004.08 1003.75 1003.50 1003.10 1002.94 1002.79 1002.53 1002.48 1002.16 1002.09 1002.67 1003.03 1002.86
995.75 996.48 997.10 998.19 998.67 1000.78 1002.78 1003.91 1003.94 1004.35 1005.12 1005.07 1005.31 1005.58 1005.49 1005.58 1005.76 1005.74 1005.52 1005.89 1006.18 1006.36 1006.88 1006.52 1005.81 1005.46 1004.91 1004.58 1004.61 1004.53 1004.47 1004.53 1004.89 1004.94 1004.59 1004.12 1003.90 1003.90 1003.91 1004.07 1003.75 1003.33 1003.18 1002.92 1002.54 1002.25 1002.25 1002.26 1002.19 1002.14 1002.03 1002.17 1002.85 1003.01
996.54 996.55 997.87 998.66 1000.17 1001.20 1002.83 1004.13 1004.55 1004.88 1005.22 1005.08 1005.24 1005.27 1005.44 1005.54 1005.62 1005.59 1005.53 1005.70 1006.02 1005.61 1005.35 1005.08 1005.01 1004.54 1003.99 1003.94 1004.30 1004.38 1004.26 1004.36 1004.40 1004.25 1003.87 1003.65 1003.17 1003.34 1003.28 1002.97 1002.80 1002.73 1002.79 1002.63 1002.51 1002.07 1001.82 1001.84 1001.69 1001.82 1002.03 1002.10 1002.26 1002.70
997.92 997.60 998.82 999.79 1001.30 1002.66 1003.84 1004.96 1005.04 1005.44 1005.52 1005.44 1005.56 1005.33 1005.41 1005.33 1005.10 1005.06 1005.14 1005.29 1004.75 1004.10 1004.18 1004.18 1004.15 1003.98 1003.97 1003.81 1003.55 1003.59 1003.44 1003.55 1003.56 1003.46 1003.15 1003.09 1003.15 1003.02 1002.68 1002.40 1002.40 1002.22 1002.09 1001.90 1001.87 1001.70 1001.20 1000.90 1001.07 1001.46 1001.86 1002.05 1002.27 1002.58
997.53 998.00 999.40 1000.62 1002.30 1003.73 1005.43 1005.04 1005.22 1005.43 1005.38 1005.59 1005.43 1005.38 1005.21 1004.91 1004.73 1004.85 1004.89 1004.36 1003.73 1003.22 1003.23 1003.34 1003.12 1002.90 1003.03 1002.82 1002.95 1003.10 1003.22 1003.22 1002.94 1002.63 1002.46 1002.31 1001.98 1001.75 1001.67 1001.54 1001.54 1001.47 1001.09 1000.69 1000.65 1000.73 1000.66 1000.33 1000.62 1001.09 1001.60 1001.99 1002.34 1002.60
997.64 999.05 1000.67 1001.95 1003.23 1005.14 1005.47 1005.66 1005.65 1005.68 1005.66 1005.65 1005.69 1005.87 1005.86 1005.54 1005.30 1005.04 1004.48 1003.74 1003.19 1002.94 1002.91 1002.71 1002.76 1002.85 1002.84 1002.78 1002.55 1002.26 1002.35 1002.25 1002.03 1001.70 1001.65 1001.68 1001.42 1001.00 1001.00 1000.70 1000.50 1000.17 1000.10 999.95 999.92 999.96 1000.13 1000.04 1000.31 1000.86 1001.38 1001.68 1002.00 1002.34
999.00 1001.28 1001.91 1003.60 1004.46 1004.94 1005.66 1006.03 1006.08 1005.98 1005.97 1006.01 1006.08 1006.32 1006.21 1006.16 1005.71 1005.12 1004.29 1003.60 1003.04 1002.90 1003.05 1002.92 1002.82 1002.81 1002.85 1002.40 1002.12 1001.95 1001.79 1001.95 1001.94 1001.53 1000.99 1000.92 1000.60 1000.33 1000.06 999.84 999.53 999.19 999.08 999.19 999.33 999.45 999.54 999.46 1000.04 1000.45 1000.71 1000.96 1001.31 1001.66
1000.88 1002.63 1003.42 1004.00 1004.85 1005.00 1005.17 1005.31 1005.45 1005.42 1005.63 1006.19 1006.46 1006.62 1006.35 1006.17 1006.06 1005.30 1004.11 1003.53 1003.66 1003.79 1003.81 1003.75 1003.64 1003.28 1002.90 1002.65 1002.35 1001.85 1001.57 1001.49 1001.45 1001.06 1000.11 1000.03 999.90 999.73 999.34 999.08 998.63 998.14 998.20 998.12 998.38 998.69 998.71 998.78 999.17 999.89 1000.16 1000.15 1000.28 1000.78
1002.06 1003.12 1003.63 1003.98 1003.88 1004.02 1004.36 1004.66 1004.88 1004.93 1005.39 1005.78 1006.24 1006.46 1006.56 1006.34 1005.70 1004.34 1003.76 1003.93 1003.95 1003.94 1003.74 1003.46 1003.25 1003.06 1002.71 1002.19 1001.83 1001.55 1001.26 1001.10 1000.98 1000.36 999.76 999.25 998.85 998.55 998.37 998.03 997.61 997.18 997.24 997.36 997.40 997.42 997.52 997.75 998.03 998.63 999.03 999.21 999.37 999.76
1002.59 1002.92 1003.20 1003.81 1003.75 1003.82 1004.21 1004.53 1004.66 1004.54 1004.63 1005.05 1005.61 1005.87 1005.68 1005.06 1004.58 1004.29 1004.20 1004.29 1004.31 1003.99 1003.59 1003.24 1003.01 1002.90 1002.72 1002.36 1002.01 1001.64 1001.22 1000.86 1000.36 999.90 999.27 998.48 997.92 997.51 997.14 996.84 996.63 996.52 996.49 996.47 996.49 996.50 996.64 996.74 996.84 997.22 997.68 998.07 998.54 998.98
1003.26 1003.29 1003.34 1004.10 1004.11 1004.02 1003.95 1003.88 1003.89 1003.91 1004.10 1004.48 1004.70 1004.73 1004.63 1004.54 1004.80 1004.90 1004.77 1004.66 1004.35 1004.12 1003.93 1003.59 1003.10 1002.90 1002.55 1002.17 1001.77 1001.38 1001.08 1000.63 1000.22 999.72 998.98 998.06 997.27 996.76 996.23 995.87 995.67 995.56 995.50 995.55 995.50 995.54 995.73 996.00 996.23 996.60 996.84 997.16 997.56 998.26
1004.02 1003.96 1004.16 1004.53 1004.41 1004.36 1003.86 1003.63 1003.73 1003.74 1003.79 1003.88 1003.88 1003.99 1004.20 1004.78 1005.34 1005.15 1005.19 1004.90 1004.61 1004.37 1004.18 1003.86 1003.44 1003.06 1002.78 1002.33 1001.78 1001.04 1000.63 1000.42 1000.06 999.86 998.95 998.11 997.27 996.61 996.04 995.49 995.16 994.91 994.76 994.82 994.74 994.81 995.16 995.60 995.92 996.43 996.85 997.21 997.45 998.02
1004.23 1004.06 1004.20 1004.24 1004.46 1004.18 1003.90 1003.75 1003.74 1003.78 1003.81 1004.00 1003.74 1003.92 1003.95 1004.67 1005.18 1005.23 1005.18 1005.04 1004.86 1004.58 1004.19 1003.84 1003.45 1003.21 1002.89 1002.53 1002.26 1001.88 1001.15 1000.69 1000.50 1000.01 999.27 998.26 997.14 996.41 995.79 995.34 994.89 994.63 994.46 994.55 994.29 994.34 994.58 995.12 995.67 996.05 996.37 996.62 996.97 997.38
1004.46 1004.42 1004.43 1004.54 1004.71 1004.29 1003.97 1003.98 1004.12 1004.25 1004.30 1004.35 1004.25 1004.02 1003.93 1004.08 1004.82 1005.24 1005.31 1005.06 1004.71 1004.43 1004.24 1004.06 1003.77 1003.41 1003.12 1003.10 1002.96 1002.57 1002.05 1001.43 1000.71 1000.05 999.29 998.30 997.33 996.12 995.62 995.33 994.98 994.61 994.48 994.46 994.23 994.36 994.62 994.84 995.12 995.46 995.77 996.09 996.46 996.75
1005.32 1004.94 1004.80 1004.78 1004.89 1004.89 1004.84 1004.90 1004.97 1005.09 1005.04 1004.90 1004.78 1004.39 1004.19 1004.33 1004.85 1005.18 1005.08 1004.96 1004.91 1004.77 1004.56 1004.26 1003.93 1003.63 1003.33 1003.18 1003.09 1002.62 1002.04 1001.51 1000.95 1000.22 999.44 998.42 997.45 996.47 995.54 995.34 995.00 994.80 994.62 994.58 994.67 994.71 994.75 994.90 994.96 995.14 995.30 995.45 995.87 996.11
Wind_Speed
16 14 15 16 13 20 19 15 10 12 18 26 26 30 31 30 29 13 3 7 6 3 5 7 7 7 4 4 7 5 6 2 3 4 5 5 5 9 3 6 9 10 11 6 4 4 12 9 6 10 9 3 5 5
16 15 18 15 12 12 23 20 15 12 9 9 19 28 30 30 30 22 3 6 5 3 3 2 4 4 1 6 8 5 4 7 7 5 2 4 4 3 6 6 0 5 11 10 15 13 4 10 6 12 1 5 5 4
18 16 18 18 14 13 14 19 21 18 16 13 9 9 12 23 29 25 4 6 4 2 5 1 6 5 3 5 1 7 3 4 4 3 5 4 5 5 6 9 6 6 5 5 2 7 11 7 10 6 6 10 6 7
16 18 18 20 18 17 14 13 18 21 20 19 17 14 12 13 25 27 5 6 6 4 4 4 3 8 5 5 4 3 5 4 4 3 3 4 4 6 6 3 7 6 10 7 8 6 7 9 9 14 14 9 8 11
14 14 16 18 19 21 18 18 19 17 16 22 20 18 17 14 20 16 3 6 4 6 5 2 3 4 3 7 7 7 7 5 3 3 2 4 3 2 1 1 10 8 9 8 18 8 10 11 9 8 11 13 15 13
16 15 14 15 16 15 16 18 18 13 9 7 26 22 19 18 19 6 2 3 6 3 2 2 3 2 1 5 8 9 5 3 3 5 4 4 3 2 2 9 35 14 14 18 24 14 9 13 10 6 10 14 13 10
17 15 14 14 13 13 15 16 16 14 11 9 5 16 20 20 8 5 8 5 19 6 3 0 3 2 1 2 3 2 4 3 4 3 5 7 3 6 4 17 50 11 15 15 13 2 12 8 12 12 18 18 14 11
18 18 16 15 14 13 13 15 17 16 13 10 8 8 13 21 10 4 2 17 15 5 3 4 3 2 6 4 3 2 4 4 3 4 3 5 3 3 7 27 29 22 21 23 20 12 21 15 9 14 13 10 13 15
17 17 16 16 16 16 15 15 15 18 17 14 9 9 5 4 2 3 16 19 4 5 7 4 7 6 5 3 3 2 3 3 3 6 5 7 5 10 18 22 29 27 23 26 18 18 19 22 25 24 21 18 19 19
18 17 16 15 15 15 16 16 15 13 12 15 4 4 3 2 26 13 7 4 3 1 2 4 2 4 5 2 3 5 3 4 5 6 4 5 6 21 23 28 24 19 12 7 13 22 21 24 24 25 21 17 17 17
18 17 16 15 16 16 16 15 13 18 12 4 3 3 2 4 3 4 4 3 3 2 3 3 5 6 3 4 3 3 3 3 5 5 8 5 7 20 33 24 25 21 17 19 20 23 23 22 19 17 14 11 12 14
18 17 16 14 15 17 19 17 22 7 3 8 10 6 2 2 3 4 3 3 3 6 4 5 4 2 3 3 3 4 4 3 6 6 5 5 12 16 5 8 10 15 18 21 21 24 23 20 18 17 16 17 13 12
19 17 16 16 16 18 19 20 19 30 14 4 5 5 3 1 3 5 8 4 3 5 6 6 5 4 3 2 3 4 6 6 4 4 4 9 3 2 4 3 7 8 7 7 9 9 10 13 13 14 15 14 14 11
17 17 16 16 17 18 18 25 33 15 5 4 5 5 5 4 6 7 7 5 4 4 7 7 3 3 2 4 3 5 4 3 4 4 8 8 4 4 5 4 3 6 5 6 8 8 9 9 9 9 10 10 7 10
16 15 17 17 19 19 22 32 24 5 4 5 5 7 8 4 1 1 3 4 4 8 10 4 1 2 2 3 3 3 5 4 5 8 6 1 1 3 4 3 4 5 5 5 5 7 9 7 6 9 9 6 7 7
14 12 6 16 19 19 28 26 3 2 3 4 3 4 1 3 2 1 4 2 3 7 2 3 3 2 4 3 3 7 6 10 8 4 3 1 2 3 4 4 6 4 5 6 7 7 8 7 8 7 5 5 6 7
15 3 13 18 22 18 21 5 2 3 5 5 2 0 3 2 4 4 3 4 4 9 4 3 9 10 2 3 5 6 8 2 4 3 3 5 3 4 4 5 6 6 7 6 5 6 7 7 4 2 6 5 5 6
2 7 19 18 17 13 4 2 3 3 4 2 4 4 3 2 4 3 4 7 7 6 4 6 5 5 7 8 6 4 5 4 3 3 3 3 3 4 4 5 6 5 7 7 6 6 5 6 6 4 3 3 4 5
8 9 20 24 11 6 4 2 1 4 1 1 2 2 2 2 1 2 4 9 2 4 5 1 3 5 5 3 4 4 2 3 4 3 3 4 5 5 4 5 6 6 6 5 5 4 4 6 5 3 4 4 3 4
16 17 22 22 7 4 5 2 1 4 3 2 2 3 3 3 2 2 5 6 3 4 4 6 6 3 4 4 4 4 3 3 3 2 5 4 4 4 5 5 5 5 5 5 5 5 2 3 3 3 4 5 6 6
9 15 18 7 3 5 5 2 3 2 3 3 3 3 2 2 3 3 4 3 3 4 4 4 4 5 5 1 3 4 5 5 5 6 5 4 4 4 4 5 4 3 3 3 4 5 5 5 4 3 4 4 4 4
2 8 5 4 5 3 5 1 4 3 3 3 3 2 3 3 3 3 4 3 4 5 5 4 4 5 6 7 8 6 6 5 6 5 7 6 5 5 5 5 3 4 4 5 4 6 6 4 3 4 4 4 5 4
9 4 4 4 5 5 1 3 4 2 5 2 0 2 1 1 2 4 3 4 4 4 4 5 6 7 8 5 3 3 5 7 6 6 7 6 7 7 5 6 5 6 7 6 5 5 5 6 7 6 4 4 4 3
5 6 5 4 4 3 2 3 3 3 2 2 2 3 1 1 0 2 4 4 3 2 4 6 3 4 3 4 4 4 5 5 7 7 4 5 7 8 6 8 7 6 8 6 4 4 5 5 8 6 6 6 6 6
6 5 4 5 3 6 4 3 2 2 3 0 3 1 2 2 3 3 4 3 3 1 2 3 3 3 5 6 4 4 4 4 5 8 7 6 7 6 7 5 7 8 4 4 6 6 5 5 6 7 8 9 10 10
5 2 3 4 2 5 6 5 6 5 5 3 1 1 2 2 2 7 4 2 1 0 0 1 1 3 3 4 5 5 4 3 4 6 9 6 6 8 10 9 8 7 7 8 6 8 8 8 9 11 10 12 16 11
4 2 1 1 3 3 4 3 2 3 4 6 4 4 3 5 7 5 1 1 1 1 3 3 3 3 4 7 5 5 5 5 6 9 9 8 7 8 9 10 11 7 5 8 9 10 11 11 11 13 12 8 9 11
3 3 5 2 2 1 5 3 4 5 4 3 5 6 10 9 4 2 3 3 3 4 4 4 4 3 4 6 6 7 6 6 8 8 9 9 9 9 10 8 8 11 6 7 8 8 10 10 11 13 12 11 9 9
3 1 3 3 3 3 1 3 4 2 4 4 4 3 4 1 2 3 3 4 4 3 4 5 5 4 5 4 4 4 5 5 7 12 14 11 10 6 5 7 7 6 6 7 13 12 10 9 9 10 12 10 9 8
1 1 4 2 4 3 3 3 2 2 2 3 3 1 2 3 1 2 2 2 4 5 5 5 5 4 5 6 8 9 7 4 3 6 8 10 9 7 6 5 6 6 5 6 6 5 12 8 7 4 5 4 5 6
1 1 3 2 2 2 0 0 1 1 1 1 1 2 3 4 2 1 3 3 3 3 3 4 5 5 6 8 8 8 8 6 11 13 11 10 9 7 6 6 5 4 4 5 5 5 6 7 6 7 8 9 10 10
3 2 2 2 1 3 1 2 1 1 1 1 1 1 1 2 2 1 3 3 5 6 8 7 6 7 6 4 5 4 9 7 8 10 13 10 11 10 5 4 5 3 3 3 3 4 6 7 7 9 9 10 10 10
3 3 3 2 4 4 3 3 3 2 3 2 1 1 2 2 2 2 1 2 3 4 5 5 6 6 6 6 6 7 10 7 13 18 23 24 26 23 5 3 3 3 4 4 3 1 3 5 6 7 8 8 10 10
Wind_Direction
210 196 227 226 236 195 192 196 212 213 206 196 195 191 190 189 182 169 192 191 169 184 264 190 192 143 128 150 149 173 81 324 53 155 153 198 194 214 166 176 174 167 162 194 145 198 275 164 84 182 212 214 206 209
220 209 204 212 216 241 187 185 189 189 180 183 202 198 194 191 185 180 185 176 163 176 248 274 266 293 249 187 141 191 181 163 171 117 218 145 192 148 173 228 167 231 192 186 186 204 247 206 204 226 136 209 223 212
215 210 220 208 210 225 235 200 191 191 184 167 162 159 186 207 189 180 140 136 111 126 305 224 217 245 132 211 213 136 266 178 192 176 157 179 213 132 176 229 205 247 170 216 151 202 227 219 255 250 235 235 237 233
211 201 216 219 207 227 229 230 230 210 204 193 192 194 202 221 195 184 155 160 94 94 195 267 341 237 187 170 166 137 136 88 94 100 147 164 172 183 205 215 210 181 142 193 257 267 296 256 233 247 256 248 247 245
213 216 209 214 210 209 208 219 228 227 219 211 200 197 201 202 182 183 97 185 154 157 182 232 311 250 266 180 181 166 157 137 143 143 160 221 174 146 190 25 243 179 178 204 248 190 216 248 236 233 238 242 246 248
208 213 217 218 212 208 206 209 196 202 207 239 202 186 189 179 168 131 87 194 195 130 109 205 350 273 200 185 196 194 186 153 149 150 211 253 155 38 246 258 261 230 213 229 256 244 217 241 248 210 239 243 245 226
202 206 212 222 222 212 206 196 190 189 193 198 192 197 188 181 148 158 179 189 173 131 112 67 265 221 200 135 165 149 181 175 157 183 220 228 208 187 196 244 262 228 258 252 254 296 265 233 250 224 239 251 254 251
203 203 205 209 217 217 212 206 197 193 188 204 190 225 229 189 137 148 138 140 139 97 113 187 214 274 177 156 191 163 152 147 205 191 189 205 173 190 243 244 263 255 260 266 262 230 253 273 261 255 255 264 259 258
204 207 207 207 210 210 210 206 202 195 191 203 156 109 41 30 101 140 141 126 65 123 173 180 175 207 156 137 131 130 171 172 173 205 194 155 178 220 231 245 249 252 241 254 254 251 253 256 261 260 259 256 255 260
204 209 213 215 212 210 204 201 193 186 187 124 79 75 108 315 113 96 33 43 39 41 92 191 138 167 136 166 167 132 186 194 192 209 158 208 242 249 245 240 247 252 252 263 256 255 250 253 254 263 264 259 257 265
202 209 210 211 209 207 203 196 180 124 108 78 80 86 248 326 62 60 133 155 152 158 183 224 196 141 218 140 159 205 170 188 204 196 192 191 245 243 243 245 250 261 252 242 241 255 258 260 267 271 268 252 250 254
199 207 211 210 207 202 197 181 153 117 121 135 114 92 56 42 64 113 133 121 186 206 190 175 186 155 165 150 136 166 192 180 227 150 187 212 246 267 277 237 239 241 240 242 241 249 256 258 260 264 269 271 254 243
197 204 209 210 208 201 191 173 141 124 119 78 75 124 161 113 145 174 172 205 190 183 184 176 154 143 125 198 148 159 188 210 136 195 216 236 229 283 265 241 242 249 274 285 283 275 270 266 264 255 259 258 251 247
201 202 204 203 195 189 174 143 144 142 94 98 144 153 194 183 229 191 184 161 199 111 145 152 120 152 141 164 165 179 185 145 197 213 230 243 192 254 282 285 268 267 276 287 279 275 263 252 264 266 255 254 240 231
198 198 195 191 176 160 146 154 162 89 127 149 137 189 199 224 343 107 157 125 153 152 141 108 56 107 161 180 187 155 166 211 207 224 227 239 194 265 264 257 262 292 300 291 290 284 280 275 260 274 271 253 232 226
194 179 177 170 154 142 154 161 102 83 76 135 159 108 100 83 287 231 177 128 120 134 95 85 152 188 211 180 158 204 175 213 228 209 220 250 297 287 269 287 286 276 274 278 281 279 281 280 274 268 276 231 221 183
153 163 163 163 151 158 157 93 104 141 161 166 192 157 143 138 176 155 139 138 154 154 186 172 174 203 125 187 220 191 212 222 195 210 215 208 226 285 304 291 291 290 291 284 283 290 280 282 287 266 260 247 198 164
117 147 165 155 149 101 40 54 132 141 161 161 152 176 169 125 134 151 164 157 157 177 144 209 145 187 204 196 224 229 209 228 220 226 235 238 237 247 230 262 291 297 289 284 271 270 270 271 265 247 240 181 147 134
142 146 165 139 121 106 124 102 279 125 165 147 116 96 135 141 230 146 153 171 143 127 127 150 198 212 218 212 219 224 223 200 215 221 232 240 229 233 262 269 270 268 270 263 261 255 255 252 246 212 161 164 184 150
155 161 163 153 91 104 102 78 64 107 153 160 107 158 149 161 147 174 150 155 123 108 197 220 220 217 200 209 203 210 208 195 172 276 274 261 226 231 258 254 267 283 291 283 264 262 282 288 246 207 173 160 161 179
106 130 113 87 73 62 90 106 51 81 142 97 140 150 117 144 141 154 151 140 189 213 219 209 207 241 227 229 219 217 229 188 209 201 220 251 255 217 268 283 263 271 256 284 285 277 238 228 231 195 189 191 168 166
112 70 92 57 82 64 79 353 125 174 91 159 142 141 137 155 146 149 125 200 224 221 188 176 199 221 241 241 243 206 236 242 249 250 260 267 268 271 267 248 242 259 252 244 234 246 238 216 183 176 185 190 171 155
110 64 69 84 84 59 324 22 80 11 104 150 128 83 53 97 108 134 211 222 244 222 195 198 213 215 232 259 234 235 222 237 250 243 246 245 251 253 258 262 225 239 267 263 214 233 239 200 194 183 168 163 160 161
65 57 58 78 91 128 22 46 44 71 87 133 118 113 154 98 7 229 248 238 238 240 203 219 211 270 275 236 237 244 222 218 258 270 254 255 268 268 242 252 255 233 235 251 208 213 214 192 180 171 180 181 178 179
74 9 68 70 22 85 84 105 109 110 115 58 118 119 227 186 204 235 243 274 235 280 316 292 282 255 259 280 294 283 245 220 248 267 267 232 258 272 266 245 245 243 213 211 228 212 210 169 176 188 193 189 187 185
80 16 105 154 177 129 172 132 178 154 130 145 147 150 181 153 158 244 240 226 286 295 53 45 287 291 271 222 267 285 282 236 247 259 272 251 232 243 261 268 271 268 206 215 212 210 204 186 182 196 209 204 195 178
129 214 21 226 116 137 103 78 66 111 145 161 171 154 122 176 227 247 251 78 327 308 290 286 285 269 274 298 295 289 290 280 253 265 279 275 256 245 243 250 255 257 198 205 208 208 203 194 191 200 209 199 196 190
158 168 126 175 88 60 127 122 159 176 165 165 123 177 177 194 234 354 18 6 317 312 311 312 308 296 292 288 288 290 288 276 275 276 275 267 251 249 247 247 249 244 206 211 215 212 213 207 203 199 194 197 198 192
71 16 86 61 40 32 146 155 201 210 154 143 159 187 226 156 34 353 341 337 326 333 335 334 331 322 303 285 277 282 282 299 310 302 294 288 294 283 242 241 243 235 220 216 218 210 208 203 194 196 200 195 195 188
287 136 89 88 114 200 244 169 178 162 174 175 159 94 110 105 56 297 320 328 1 355 326 311 318 330 333 335 328 333 336 294 311 314 309 300 294 302 298 276 253 242 229 215 201 191 211 211 207 186 175 162 157 177
246 104 79 91 160 253 225 203 39 57 89 161 221 170 171 131 175 236 30 343 324 312 326 354 1 9 5 0 357 336 332 350 338 329 328 320 308 294 302 310 288 267 234 224 185 172 174 172 185 191 189 194 199 197
16 48 114 83 310 286 344 71 100 118 150 122 351 85 135 110 100 60 352 348 14 19 355 354 349 344 348 4 324 305 323 315 328 331 335 336 333 315 296 318 316 309 283 246 189 179 184 187 189 199 205 208 207 207
12 12 35 57 22 18 350 61 28 13 20 44 22 26 45 81 107 111 278 47 23 357 337 324 314 308 314 317 335 329 338 331 331 341 343 349 353 354 330 330 5 14 28 35 21 341 245 235 218 210 209 202 209 209